sat.trackr.live / text

‹ back to catalog

STARLINK-30176

NORAD 57477 · 2023-107W

PAYLOAD ACTIVE UNKNOWN

§ Identity

Operator
Country
US
Launch date
2023-07-28
Launch site
AFETR
Launch vehicle
Mass (kg)
RCS (m²)

Purposes: comms

External: N2YO · Heavens-Above · Gunter

§ Orbital elements

Epoch: 2026-09-20T15:08:18.776832Z

Period
94.27 min
Inclination
43.0027°
Eccentricity
0.0001352
Mean motion
15.27591796 rev/d
Perigee alt
482.1 km
Apogee alt
483.9 km
Semi-major
6,861.2 km
B*
4.0722e-4
RAAN
314.9357°
Arg perigee
267.7052°
Mean anomaly
92.3645°
Rev number
17,496

§ Raw data

STARLINK-301761 57477U 23107W   26263.63077288  .00010964  00000+0  40722-3 0  99902 57477  43.0027 314.9357 0001352 267.7052  92.3645 15.27591796174968

JSON: /api/v1/satellites/57477 · /tle

For live sub-satellite position, see the globe view (requires WebGL).

§ Visibility from observer

Set your observer location to see the next 7 days of passes ≥ 10°. The values pass through the URL so the page stays shareable.

No JS? Fill the form by hand. The geolocation button needs JavaScript.